Regional Weather Roundup
Issued by NWS

Home | Current Version | Previous Version | Text Only | Print | Product List | Glossary Off
Versions: 1 2 3 4 5 6 7 8 9 10 11 12 13 14 15 16 17 18 19 20 21 22 23 24 25 26 27 28 29 30 31 32 33 34 35 36 37 38 39 40 41 42 43 44 45 46 47 48 49 50

000
ASUS45 KTFX 290304
RWRMT
MONTANA HOURLY WEATHER ROUNDUP
NATIONAL WEATHER SERVICE GREAT FALLS MT
804 PM MST FRI NOV 28 2014

NOTE: "FAIR" INDICATES FEW OR NO CLOUDS BELOW 12000 FEET WITH NO
SIGNIFICANT WEATHER AND/OR OBSTRUCTIONS TO VISIBILITY.

* THESE STATIONS ARE NOT UNDER NWS QUALITY CONTROL. THEY DO NOT
   REPORT WEATHER SUCH AS PRECIPITATION OR FOG.

MTZ001>007-043-290400-
WEST OF THE DIVIDE
CITY           SKY/WX    TMP DP  RH WIND       PRES   REMARKS
KALISPELL      LGT RAIN  45  37  74 S14       29.23F
MISSOULA       CLOUDY    46  34  63 CALM      29.40F
BUTTE          PTCLDY    43  21  42 SW16G30   29.47F
MULLAN PASS    SNOW      30  30 100 S10G28    29.28F VSB M1/4 WCI  21
* ESSEX        N/A       19  15  84 SE10G20    N/A   WCI   8
* LINCOLN      N/A       43  29  58 W5G11      N/A
* LOOKOUT PASS N/A       34  34 100 SE10G19    N/A   WCI  26
* POLSON       N/A       43  34  71 S3G11      N/A
* RONAN APT    CLOUDY    48  34  59 SE16G23    N/A
* SEELEY LAKE  N/A       40  32  73 E2         N/A
* THOMP F APT  CLOUDY    36  17  46 E7G13      N/A   WCI  30
* YAAK HILL    N/A       43  40  89 SE4G11     N/A
$$

MTZ008-052>055-290400-
SOUTHWEST MONTANA
CITY           SKY/WX    TMP DP  RH WIND       PRES   REMARKS
BOZEMAN        PTCLDY    46  18  33 VRB7      29.46F
DILLON         PTCLDY    45  19  35 W20       29.52F
* W YELLOWSTON CLOUDY    37  21  52 SW6G18     N/A   WCI  32
* ENNIS APT    PTCLDY    46  14  27 S11G17     N/A
* THREE FORKS  PTCLDY    52  21  30 S15G21     N/A
* BOULDER HILL N/A       44  17  34 S15        N/A
* MONIDA PASS  N/A       35  12  38 SE11G17    N/A   WCI  27
* RAYNOLDS PAS N/A       40  22  49 S18G35     N/A   WCI  31
* WHITEHALL    N/A       50  16  26 SW11G18    N/A
* WISE RIVER   N/A       42  20  41 W19G32     N/A
$$

MTZ009>010-012-014-046-048-049-054-290400-
EAST SLOPES AND CENTRAL MONTANA
CITY           SKY/WX    TMP DP  RH WIND       PRES   REMARKS
CUT BANK       LGT SNOW  -6  -9  87 N21G26    29.59R VSB 3/4  WCI -30
GREAT FALLS    CLOUDY     3   0  87 N14       29.55R WCI -15
HELENA         CLOUDY    48  28  46 NW7       29.38F
* EAST GLACIER N/A       -8 -12  82 E12        N/A   WCI -28
* MONARCH      N/A       14  10  84 W10        N/A   WCI   1
* PENDROY      N/A       -3  -6  87 N16G24     N/A   WCI -24
* ROGERS PASS  N/A       40  29  65 SE11G19    N/A   WCI  33
* SAINT MARY   N/A       -7 -14  71 N6G11      N/A   WCI -20
* SWEET GRASS  N/A       -7 -10  86 N22G29     N/A   WCI -32
$$

MTZ011-013-016-021-035-040-045-047-050-051-290400-
NORTH CENTRAL MONTANA
CITY           SKY/WX    TMP DP  RH WIND       PRES   REMARKS
HAVRE          CLOUDY     1  -2  87 NW18G23   29.65R WCI -20
LEWISTOWN      FOG       14  10  84 W15       29.45R WCI  -1
* N BAR RANCH  PTCLDY    52  25  35 W23G37    29.37S
* CHESTER      N/A        1  -5  75 NE8G14     N/A   WCI -13
* DENTON       N/A        7   5  91 NW17       N/A   WCI -11
* JUDITH GAP   N/A       48  22  36 SW29G38    N/A
* LOMA         N/A        4  -1  79 N18G24     N/A   WCI -16
$$

MTZ017>020-022>027-061-062-290400-
NORTHEAST MONTANA
CITY           SKY/WX    TMP DP  RH WIND       PRES   REMARKS
GLASGOW        CLOUDY    19  16  88 NW16      29.49R WCI   4
GLENDIVE       CLOUDY    37  30  76 NW17      29.40R WCI  27
JORDAN         CLOUDY    27  25  92 N12       29.46R WCI  16
SIDNEY         CLOUDY    28  25  89 CALM      29.43F
WOLF POINT     CLOUDY    28  25  89 N8        29.48R WCI  20
* BEAVER HILL  N/A       47  31  54 S16        N/A
* CIRCLE       N/A       30  28  92 NW7G15     N/A   WCI  23
* LINDSAY DVD  N/A       29  27  92 W15G21     N/A   WCI  18
* NAVAJO       N/A       24  22  92 N10        N/A   WCI  14
* SACO         N/A       13   7  77 NW24       N/A   WCI  -6
$$

MTZ028>042-056>058-290400-
SOUTHCENTRAL AND SOUTHEAST MONTANA
CITY           SKY/WX    TMP DP  RH WIND       PRES   REMARKS
BAKER          CLOUDY    52  30  43 SW14      29.40F
BILLINGS       FAIR      50  19  29 W12       29.40F
LIVINGSTON     CLOUDY    54  12  19 SW36G44   29.42F
MILES CITY     CLOUDY    50  32  50 SW13      29.37F
* LAUREL APT   PTCLDY    45  19  35 SW6        N/A
* ALZADA       N/A       41  27  58 W2         N/A
* LAME DEER    N/A       49  22  35 SW12G17    N/A
* REED POINT   N/A       43  21  42 E1G6       N/A
* ROSCOE HILL  N/A       52  -3  10 SW25G46    N/A
$$

REGIONAL REPORTS...DAKOTAS
CITY           SKY/WX    TMP DP  RH WIND       PRES   REMARKS
WILLISTON      CLOUDY    19  16  88 N9        29.42F WCI   8
DICKINSON      PTCLDY    39  30  70 CALM      29.36F
BEACH          CLOUDY    41  32  70 SW12      29.38F
CROSBY         CLOUDY    14  12  92 E7        29.46F WCI   4
BISMARCK       PTCLDY    18  10  71 SE8       29.49F WCI   8
GRAND FORKS    CLOUDY    18  12  77 S15       29.62F WCI   4
FARGO          MOCLDY    19  12  74 SE18G28   29.64F WCI   4
BUFFALO SD     CLOUDY    46  28  50 SW12      29.38F
RAPID CITY     MOCLDY    50  25  38 SW7       29.51F
$$

REGIONAL REPORTS...WYOMING/IDAHO/WASHINGTON
CITY           SKY/WX    TMP DP  RH WIND       PRES   REMARKS
GILLETTE       MOCLDY    48  25  41 SW23      29.52F
SHERIDAN       PTCLDY    59  10  14 VRB5G31   29.47F
CODY           PTCLDY    52  10  18 SW15G21   29.56F
YELLOWSTONE LA CLOUDY    36  12  37 W8        29.71F WCI  30
SALMON         PTCLDY    46  21  37 SE3       29.53F
MULLAN PASS    SNOW      30  30 100 S10G28    29.28S VSB M1/4 WCI  21
SAND POINT     RAIN      46  46 100 SW13G23   29.19F
SPOKANE        RAIN      46  43  89 SW36G44   29.24S
$$

REGIONAL REPORTS...SASKATCHEWAN
CITY           SKY/WX    TMP DP  RH WIND       PRES   REMARKS
SWIFT CURRENT  LGT SNOW   0  -4  83 NW15G24   29.54R VSB 2 1/4 WCI -19
REGINA         LGT SNOW  12   9  88 S6        29.50S WCI   2

$$




USA.gov is the U.S. government's official web portal to all federal, state and local government web resources and services.